weather.gov     
National Weather Service

Regional Weather Roundup
NWS Homepage
This page is being discontinued on March 12, 2014.
The same data is available at this site. Please update your bookmarks.
Thank you, and we apologize for the inconvenience.
Please send an email to SR-SRH.Webmaster@noaa.gov with any concerns.


Current Version
Previous Version:    01  02  03  04  05  06  07  08  09  10  11  12  13  14  15  16  17  18  19  20  21  22  23  24  25  26  27  28  29  30  
   31  32  33  34  35  36  37  38  39  40  41  42  43  44  45  46  47  48  49  50  51  52  53  54  55  56  57  58  59  60  
[Printable]
860
ASUS44 KLIX 211510
RWRLA
LOUISIANA WEATHER ROUNDUP
NATIONAL WEATHER SERVICE NEW ORLEANS LA
900 AM CST SUN DEC 21 2014

NOTE: "FAIR" INDICATES FEW OR NO CLOUDS BELOW 12,000 FEET WITH NO
      SIGNIFICANT WEATHER AND/OR OBSTRUCTIONS TO VISIBILITY.
      SKY/WX - SKY CONDITION AND SIGNIFICANT WEATHER.
      TMP - AIR TEMPERATURE.    DP   - DEWPOINT TEMPERATURE.
      RH  - RELATIVE HUMIDITY.  PRES - PRESSURE.
      HX  - HEAT INDEX.         WCI  - WIND CHILL INDEX.

*  THESE STATIONS ARE NOT NWS OR FAA STATIONS AND ARE NOT UNDER
   NWS QUALITY CONTROL.

LAZ040-048-061>063-065-066-069-211600-
SOUTHEAST LOUISIANA

CITY           SKY/WX    TMP DP  RH WIND       PRES   REMARKS
N.O. AUDUBON     N/A     52  50  93 MISG        N/A
N.O. INTL ARPT CLOUDY    54  48  80 E7        30.11S
N.O. LAKEFRONT CLOUDY    54  48  80 E7        30.12R
N.O. DOWNTOWN* CLOUDY    52  45  76 NE3       30.12S
SLIDELL        CLOUDY    51  47  86 NE5       30.11S
BATON ROUGE    PTSUNNY   48  44  86 VRB3      30.13R
BOOTHVILLE     CLOUDY    56  53  90 NE6       30.11R
BELLE CHASSE   CLOUDY    54  50  86 E7        30.11R
BOGALUSA*        N/A     48  44  84 N3        30.14R
GALLIANO*      CLOUDY    56  52  88 MISG      30.12S
NEW ROADS*     CLOUDY    47  45  91 N3        30.14R
GONZALES*      CLOUDY    51  49  93 CALM      30.12R
HAMMOND*       NOT AVBL
HOUMA*         CLOUDY    52  50  93 NE6       30.12R FOG
PORT FOURCHON* NOT AVBL

$$

LAZ041-044-053-054-211600-
SOUTHWEST LOUISIANA

CITY           SKY/WX    TMP DP  RH WIND       PRES   REMARKS
LAKE CHARLES   FOG       46  45  96 CALM      30.15R VSB 1/4
LAFAYETTE      CLOUDY    49  48  97 MISG      30.14R FOG
PATTERSON      CLOUDY    52  48  87 NE6       30.13R
SALT POINT       N/A     55  49  80 CALM      30.11R
NEW IBERIA     CLOUDY    50  48  93 E6        30.13S FOG
CHENAULT AIRPK FOG       45  45 100 CALM      30.15S VSB 1/4

$$

LAZ027-028-211600-
CENTRAL LOUISIANA

CITY           SKY/WX    TMP DP  RH WIND       PRES   REMARKS
FORT POLK      CLOUDY    44  42  95 SE2       30.14S
ALEXANDRIA INT SUNNY     43  42  97 CALM      30.15R
ALEXANDRIA     SUNNY     44  43  96 CALM      30.16R

$$

LAZ001-002-211600-
NORTHWEST LOUISIANA

CITY           SKY/WX    TMP DP  RH WIND       PRES   REMARKS
SHREVEPORT     CLOUDY    42  39  89 E6        30.15S
BARKSDALE AFB  NOT AVBL
DTN SHREVEPORT CLOUDY    39  37  92 E3        30.16S

$$

LAZ014-016-211600-
NORTHEAST LOUISIANA

CITY           SKY/WX    TMP DP  RH WIND       PRES   REMARKS
MONROE         SUNNY     43  39  86 CALM      30.19R
TALLULAH       SUNNY     45  38  76 NE3       30.16R

$$





U.S. Dept. of Commerce
NOAA National Weather Service
1325 East West Highway
Silver Spring, MD 20910
E-mail: w-nws.webmaster@noaa.gov
Page last modified: May 16, 2007
NATIONAL WEATHER SERVICE: for Safety, for Work, for Fun - FOR LIFE